Content
SEND FEEDBACK

Daily
Averages
Monthly
Summary
United States of America

WAHWEAP, ARIZONA


Home > North America > United States > Arizona
Elevation: 3703 feet     Latitude: 36 59N     Longitude: 111 29W

WEATHER
 
SELECT A DAY
Number of Records: 197,104;   Date Range: 1/1/95 - 10/16/14
 
SHARE

PRINT THIS DATA

[ ← Previous Day ]
WEATHER ALMANAC - FEBRUARY 1, 2013
[ Next Day → ]
[ °C ]   °F
Weather ElementAverageHighLow
Temperature40.5 °F51.1 °F (3:53 pm)30.9 °F (5:53 am)
Dewpoint26.6 °F28.9 °F (11:53 am)24.1 °F (5:53 am)
Humidity59.1 %76 % (5:53 am)39 % (3:53 pm)
Barometer30.27 in30.34 in (11:53 pm)30.22 in (2:53 pm)
Wind Speed1.4 mph4.6 mph (1:53 am)
Weather ElementAverage
Visibility9.1 mi
Wind DirectionNE (46.8 °)

Weather ElementTotal
Precipitation---
Heating Degree Days24 (Base 65)
Averaged from 25 records on February 1, 2013
WEATHER CONDITIONS BREAKOUT
WIND DIRECTION BREAKOUT
WEATHER BY HOUR - FEBRUARY 1, 2013
[ °C ]   °F
Local TimeTemperatureDewpointHumidityBarometerVisibilityWind DirectionWind SpeedGust SpeedPrecipitationEventsConditions
1:53 AM35.1 °F26.1 °F70 %30.25 in10.0 miSW (230°)4.6 mphClear
2:53 AM34.0 °F26.1 °F73 %30.25 in10.0 miCalmClear
3:53 AM33.1 °F25.0 °F72 %30.25 in10.0 miWSW (250°)3.5 mphClear
4:53 AM32.0 °F25.0 °F75 %30.25 in10.0 miWest (270°)3.5 mphClear
5:53 AM30.9 °F24.1 °F76 %30.27 in9.0 miCalmClear
6:53 AM32.0 °F24.1 °F73 %30.27 in10.0 miCalmClear
7:53 AM32.0 °F25.0 °F75 %30.29 in6.0 miCalmHaze
8:53 AM36.0 °F27.0 °F70 %30.31 in10.0 miCalmClear
9:53 AM39.0 °F26.1 °F60 %30.31 in10.0 miCalmClear
10:53 AM43.0 °F26.1 °F51 %30.30 in10.0 miCalmClear
11:53 AM43.0 °F28.9 °F58 %30.29 in10.0 miNorth (10°)4.6 mphClear
12:53 PM45.0 °F27.0 °F49 %30.27 in10.0 miCalmClear
1:53 PM48.9 °F28.0 °F44 %30.23 in10.0 miNNE (30°)3.5 mphClear
2:53 PM50.0 °F27.0 °F41 %30.22 in10.0 miVariable3.5 mphClear
3:53 PM51.1 °F27.0 °F39 %30.22 in10.0 miENE (60°)4.6 mphClear
4:53 PM50.0 °F28.0 °F43 %30.22 in10.0 miVariable3.5 mphClear
5:53 PM46.9 °F28.0 °F48 %30.24 in10.0 miCalmClear
6:53 PM44.1 °F27.0 °F51 %30.26 in10.0 miCalmClear
7:42 PM42.8 °F26.6 °F53 %30.27 in2.5 miCalmHaze
7:49 PM42.8 °F26.6 °F53 %30.27 in9.0 miCalmClear
7:53 PM42.1 °F26.1 °F53 %30.28 in6.0 miCalmHaze
8:53 PM41.0 °F27.0 °F57 %30.30 in8.0 miCalmClear
9:53 PM39.0 °F27.0 °F62 %30.32 in8.0 miCalmClear
10:53 PM39.9 °F28.0 °F63 %30.32 in8.0 miNW (320°)3.5 mphClear
11:53 PM37.9 °F28.0 °F68 %30.34 in10.0 miCalmClear
Hourly data recorded from KPGA, located miles away from Wahweap, Arizona







STORIES FROM OUR PARTNERS